FENGYUN 1C DEB

Satellite information

Favourite Embed

Satellite Type and Status

DEBRISIN ORBIT

Key statistics

Satellite FENGYUN 1C DEB at a glance.

Uptime

9665

Days in orbit

Revolutions

≈ 14.5

Per day

Orbit

SSO

Sun Synchronous Orbit

Inclination

99.0

Latest

Satellite identification and parameters

Extended collection of information and parameters for FENGYUN 1C DEB.

Object identification

Identified? True

Debris? True

Object name: FENGYUN 1C DEB

International designator: 1999-025SW

Object number (NORAD): 30141

Object ID (CCSDS): 30141

Country: PEOPLES REPUBLIC OF CHINA (PRC)

Current information (Y/N): Y

RCS size: SMALL

Orbital parameters

Period: 99.298 minutes

Inclination: 99.0108 deg

SMA: 7103.192 km

Apoapsis: 735.77 km

Periapsis: 714.345 km

RAAN: 215.7218 deg

Eccentricy: 0.00150811

Argument of periapsis: 179.3143 deg

Mean anomaly: 180.8073 deg

Mean motion: 14.50181667 rev/day

Mean motion (dot): 0.00011577 rev/day2

B* drag term: 0.0029818504 1/REarth

Two-line elements (TLE)

Creation date: Oct. 25, 2025, 3:11 a.m.

Reference frame: TEME

Reference center: EARTH

Epoch: Oct. 24, 2025, 10:21 a.m. UTC

TLE line 0: 0 FENGYUN 1C DEB

TLE line 1: 1 30141U 99025SW 25297.43148845 .00011577 00000-0 29819-2 0 9998

TLE line 2: 2 30141 99.0108 215.7218 0015081 179.3143 180.8073 14.50181667975295

Live tracking on map

Real-time ground track for satellite FENGYUN 1C DEB.

In-orbit conjunctions

A list of the most updated potential collisions computed for object FENGYUN 1C DEB.

Target Orbit TCA Probability of collision Miss distance Type
COSMOS 2251 DEB LEO 2024-11-20 08:09:54 0.0001381715 95.0 (m) DEBRIS
CZ-6A DEB LEO 2024-10-20 03:48:26 0.0001294156 845.0 (m) DEBRIS
BLOCK DM-SL R/B GTO 2024-10-01 16:51:05 0.000190629 68.0 (m) ROCKET BODY
SL-8 R/B LEO 2024-09-01 15:29:29 0.0001285141 156.0 (m) ROCKET BODY

Associated space launch

Chinese polar orbiting meteorological satellite

FENGYUN 1C DEB was lifted into orbit during the mission ‘Long March 4B | Feng Yun 1C’, on board a Long March 4B space rocket.

The launch took place on May 10, 1999, 1:33 a.m. from Launch Complex 7.

For more information about the launch, click the button.

Launch to space Long March 4B | Feng Yun 1C
Long March 4B | Feng Yun 1C

Agency: N/A

Status: Launch Successful

Launch date: May 10, 1999, 1:33 a.m. UTC

Rocket: Long March 4B

Launch pad: Launch Complex 7

Location: Taiyuan Satellite Launch Center, People's Republic of China

...

Latest news about this satellite

There are no fresh news available about this satellite. Check back as we update our databases every day.


Newsletter sign-up

Weekly statistics, charts and insights to help you stay on top of the space industry.